Weather History for KIND - July, 2013

Change the Weather History Date:

Monday, July 29, 2013

  Actual Average Record
Temperature  
Mean Temperature 67 °F 75 °F  
Max Temperature 78 °F 85 °F 100 °F (1941)
Min Temperature 55 °F 66 °F 51 °F (1881)
Degree Days  
Heating Degree Days 0 0  
Month to date heating degree days 3 0  
Since 1 June heating degree days 12 16  
Since 1 July heating degree days 3 0  
Cooling Degree Days 2 10  
Month to date cooling degree days 275 305  
Year to date cooling degree days 630 615  
Since 1 June cooling degree days 501 531  
Growing Degree Days 16 (Base 50)    
Moisture  
Dew Point 53 °F    
Average Humidity 65    
Maximum Humidity 86    
Minimum Humidity 43    
Precipitation  
Precipitation 0.00 in 0.13 in 0.80 in (1903)
Month to date precipitation 3.20 4.30  
Year to date precipitation 28.69 25.95  
Snow  
Snow 0.00 in 0.00 in 0.00 in ()
Month to date snowfall 0.0 0.0  
Since 1 June snowfall 0.0 0.0  
Since 1 July snowfall 0.0 0.0  
Snow Depth 0.00 in    
Sea Level Pressure  
Sea Level Pressure 30.12 in    
Wind  
Wind Speed 5 mph (West)    
Max Wind Speed 16 mph    
Max Gust Speed 20 mph    
Visibility 10 miles    
Events      
T = Trace of Precipitation, MM = Missing Value Source: NWS Daily Summary

Daily Weather History Graph

Daily Weather History Graph

Search for Another Location

Airport or City:

Trip Planner

Search our weather history database for the weather conditions in past years. The results will help you decide how hot, cold, wet, or windy it might be!

Date:

Astronomy

Jul. 29, 2013 Rise Set
Actual Time 6:41 AM EDT 9:00 PM EDT
Civil Twilight 6:11 AM EDT 9:31 PM EDT
Nautical Twilight 5:33 AM EDT 10:08 PM EDT
Astronomical Twilight 4:52 AM EDT 10:49 PM EDT
Moon 12:24 AM EDT (7/29) 2:21 PM EDT (7/29)
Length of Visible Light 15h 19m
Length of Day
14h 19m
Waning Gibbous, 51% of the Moon is Illuminated
Jul 29
Waning Gibbous
Jul 29
Last Quarter
Aug 6
New
Aug 14
First Quarter
Aug 20
Full

Hourly Weather History & Observations

Time (EDT) Temp. Dew Point Humidity Pressure Visibility Wind Dir Wind Speed Gust Speed Precip Events Conditions
12:54 AM 60.1 °F 53.1 °F 78% 30.04 in 10.0 mi WSW 4.6 mph - N/A   Partly Cloudy
1:54 AM 59.0 °F 53.1 °F 81% 30.04 in 10.0 mi West 3.5 mph - N/A   Partly Cloudy
2:54 AM 59.0 °F 53.1 °F 81% 30.05 in 10.0 mi WSW 3.5 mph - N/A   Partly Cloudy
3:54 AM 59.0 °F 53.1 °F 81% 30.06 in 10.0 mi WSW 3.5 mph - N/A   Mostly Cloudy
4:54 AM 55.9 °F 52.0 °F 87% 30.07 in 10.0 mi SSW 6.9 mph - N/A   Scattered Clouds
5:54 AM 55.9 °F 52.0 °F 87% 30.09 in 10.0 mi WSW 4.6 mph - N/A   Scattered Clouds
6:54 AM 55.9 °F 52.0 °F 87% 30.10 in 10.0 mi West 3.5 mph - N/A   Partly Cloudy
7:54 AM 59.0 °F 54.0 °F 83% 30.11 in 10.0 mi Calm Calm - N/A   Partly Cloudy
8:54 AM 64.0 °F 55.0 °F 73% 30.12 in 10.0 mi Calm Calm - N/A   Partly Cloudy
9:54 AM 69.1 °F 52.0 °F 54% 30.13 in 10.0 mi Calm Calm - N/A   Partly Cloudy
10:54 AM 70.0 °F 51.1 °F 51% 30.14 in 10.0 mi West 5.8 mph - N/A   Scattered Clouds
11:54 AM 73.0 °F 53.1 °F 49% 30.15 in 10.0 mi WSW 10.4 mph - N/A   Scattered Clouds
12:54 PM 75.0 °F 52.0 °F 44% 30.15 in 10.0 mi West 9.2 mph - N/A   Scattered Clouds
1:54 PM 75.0 °F 52.0 °F 44% 30.15 in 10.0 mi West 10.4 mph - N/A   Scattered Clouds
2:54 PM 75.9 °F 52.0 °F 43% 30.14 in 10.0 mi WNW 4.6 mph - N/A   Mostly Cloudy
3:54 PM 75.9 °F 53.1 °F 45% 30.14 in 10.0 mi WSW 8.1 mph - N/A   Mostly Cloudy
4:54 PM 77.0 °F 53.1 °F 43% 30.13 in 10.0 mi West 8.1 mph - N/A   Mostly Cloudy
5:54 PM 77.0 °F 53.1 °F 43% 30.15 in 10.0 mi West 10.4 mph - N/A   Mostly Cloudy
6:54 PM 75.9 °F 54.0 °F 46% 30.15 in 10.0 mi West 11.5 mph - N/A   Mostly Cloudy
7:54 PM 75.0 °F 53.1 °F 46% 30.15 in 10.0 mi WNW 8.1 mph - N/A   Mostly Cloudy
8:54 PM 71.1 °F 53.1 °F 53% 30.16 in 10.0 mi NW 4.6 mph - N/A   Mostly Cloudy
9:54 PM 70.0 °F 53.1 °F 55% 30.16 in 10.0 mi North 3.5 mph - N/A   Scattered Clouds
10:54 PM 69.1 °F 54.0 °F 58% 30.17 in 10.0 mi Calm Calm - N/A   Scattered Clouds
11:54 PM 68.0 °F 54.0 °F 61% 30.17 in 10.0 mi Calm Calm - N/A   Mostly Cloudy